sat.trackr.live / text

‹ back to catalog

STARLINK-37384

NORAD 69460 · 2026-127T

PAYLOAD ACTIVE UNKNOWN

§ Identity

Operator
Country
US
Launch date
2026-06-08
Launch site
AFETR
Launch vehicle
Mass (kg)
RCS (m²)

Purposes: comms

External: N2YO · Heavens-Above · Gunter

§ Orbital elements

Epoch: 2026-09-20T04:59:29.858208Z

Period
93.85 min
Inclination
53.1576°
Eccentricity
0.0001107
Mean motion
15.34406283 rev/d
Perigee alt
461.9 km
Apogee alt
463.4 km
Semi-major
6,840.8 km
B*
4.6700e-4
RAAN
167.3293°
Arg perigee
77.7178°
Mean anomaly
282.3949°
Rev number
1,614

§ Raw data

STARLINK-373841 69460U 26127T   26263.20798447  .00015438  00000+0  46700-3 0  99932 69460  53.1576 167.3293 0001107  77.7178 282.3949 15.34406283 16146

JSON: /api/v1/satellites/69460 · /tle

For live sub-satellite position, see the globe view (requires WebGL).

§ Visibility from observer

Set your observer location to see the next 7 days of passes ≥ 10°. The values pass through the URL so the page stays shareable.

No JS? Fill the form by hand. The geolocation button needs JavaScript.